Wetterdaten: Samstag, 22.03.2008
Datum Zeit Temp. I. Temp. A. Feuchte A. Luftdruck Regen Wind
22.03.2008 00:02 20,5 C 1,7 C 86 % 981 hPa 0,0 l/m 6,3 km/h (2 Bft)
22.03.2008 00:05 20,5 C 1,7 C 86 % 981 hPa 0,0 l/m 8,4 km/h (2 Bft)
22.03.2008 00:08 20,5 C 1,7 C 86 % 981 hPa 0,0 l/m 8,6 km/h (2 Bft)
22.03.2008 00:11 20,5 C 1,7 C 86 % 981 hPa 0,0 l/m 10,1 km/h (2 Bft)
22.03.2008 00:14 20,5 C 1,7 C 86 % 981 hPa 0,0 l/m 17,3 km/h (3 Bft)
22.03.2008 00:17 20,5 C 1,8 C 84 % 981 hPa 0,0 l/m 17,3 km/h (3 Bft)
22.03.2008 00:20 20,5 C 1,8 C 84 % 981 hPa 0,0 l/m 14,4 km/h (3 Bft)
22.03.2008 00:23 20,5 C 1,8 C 85 % 981 hPa 0,0 l/m 7,2 km/h (2 Bft)
22.03.2008 00:26 20,5 C 1,8 C 84 % 981 hPa 0,0 l/m 16,3 km/h (3 Bft)
22.03.2008 00:29 20,5 C 1,8 C 85 % 982 hPa 0,0 l/m 8,1 km/h (2 Bft)
22.03.2008 00:32 20,5 C 1,7 C 85 % 981 hPa 0,0 l/m 11,3 km/h (2 Bft)
22.03.2008 00:35 20,5 C 1,6 C 84 % 981 hPa 0,0 l/m 6,2 km/h (2 Bft)
22.03.2008 00:38 20,5 C 1,5 C 84 % 982 hPa 0,0 l/m 9,2 km/h (2 Bft)
22.03.2008 00:41 20,5 C 1,5 C 84 % 982 hPa 0,0 l/m 10,0 km/h (2 Bft)
22.03.2008 00:44 20,4 C 1,4 C 84 % 982 hPa 0,0 l/m 12,1 km/h (2 Bft)
22.03.2008 00:47 20,5 C 1,5 C 83 % 982 hPa 0,0 l/m 14,5 km/h (3 Bft)
22.03.2008 00:50 20,5 C 1,5 C 83 % 982 hPa 0,0 l/m 7,6 km/h (2 Bft)
22.03.2008 00:53 20,4 C 1,5 C 84 % 982 hPa 0,0 l/m 8,9 km/h (2 Bft)
22.03.2008 00:56 20,5 C 1,5 C 84 % 982 hPa 0,0 l/m 6,2 km/h (2 Bft)
22.03.2008 00:59 20,4 C 1,5 C 84 % 982 hPa 0,0 l/m 7,0 km/h (2 Bft)
22.03.2008 01:02 20,5 C 1,4 C 84 % 982 hPa 0,0 l/m 7,0 km/h (2 Bft)
22.03.2008 01:04 20,4 C 1,4 C 84 % 982 hPa 0,0 l/m 7,9 km/h (2 Bft)
22.03.2008 01:07 20,4 C 1,3 C 85 % 982 hPa 0,0 l/m 0,0 km/h (0 Bft)
22.03.2008 01:10 20,4 C 1,2 C 85 % 982 hPa 0,0 l/m 0,1 km/h (0 Bft)
22.03.2008 01:13 20,4 C 1,2 C 85 % 982 hPa 0,0 l/m 0,0 km/h (0 Bft)
22.03.2008 01:16 20,4 C 1,2 C 86 % 982 hPa 0,0 l/m 0,3 km/h (0 Bft)
22.03.2008 01:19 20,4 C 1,2 C 86 % 982 hPa 0,0 l/m 0,0 km/h (0 Bft)
22.03.2008 01:22 20,4 C 1,2 C 86 % 982 hPa 0,0 l/m 0,0 km/h (0 Bft)
22.03.2008 01:25 20,4 C 1,2 C 86 % 982 hPa 0,0 l/m 0,0 km/h (0 Bft)
22.03.2008 01:28 20,4 C 1,1 C 87 % 982 hPa 0,0 l/m 0,0 km/h (0 Bft)
22.03.2008 01:31 20,4 C 1,1 C 87 % 982 hPa 0,0 l/m 0,0 km/h (0 Bft)
22.03.2008 01:34 20,4 C 1,1 C 87 % 982 hPa 0,0 l/m 0,0 km/h (0 Bft)
22.03.2008 01:37 20,4 C 1,1 C 87 % 982 hPa 0,0 l/m 0,0 km/h (0 Bft)
22.03.2008 01:40 20,4 C 1,2 C 87 % 982 hPa 0,0 l/m 5,8 km/h (2 Bft)
22.03.2008 01:43 20,4 C 1,2 C 87 % 982 hPa 0,0 l/m 5,6 km/h (1 Bft)
22.03.2008 01:46 20,4 C 1,2 C 87 % 982 hPa 0,0 l/m 6,7 km/h (2 Bft)
22.03.2008 01:49 20,4 C 1,2 C 87 % 982 hPa 0,0 l/m 6,7 km/h (2 Bft)
22.03.2008 01:52 20,4 C 1,2 C 87 % 982 hPa 0,0 l/m 1,0 km/h (0 Bft)
22.03.2008 01:55 20,4 C 1,1 C 87 % 982 hPa 0,0 l/m 8,3 km/h (2 Bft)
22.03.2008 01:58 20,4 C 1,1 C 87 % 982 hPa 0,0 l/m 0,7 km/h (0 Bft)
22.03.2008 02:01 20,4 C 1,1 C 87 % 982 hPa 0,0 l/m 1,2 km/h (1 Bft)
22.03.2008 02:04 20,4 C 1,1 C 87 % 982 hPa 0,0 l/m 0,7 km/h (0 Bft)
22.03.2008 02:07 20,4 C 1,1 C 87 % 982 hPa 0,0 l/m 9,6 km/h (2 Bft)
22.03.2008 02:10 20,3 C 1,1 C 87 % 982 hPa 0,0 l/m 8,5 km/h (2 Bft)
22.03.2008 02:13 20,4 C 1,2 C 87 % 982 hPa 0,0 l/m 8,5 km/h (2 Bft)
22.03.2008 02:16 20,4 C 1,2 C 87 % 982 hPa 0,0 l/m 10,8 km/h (2 Bft)
22.03.2008 02:19 20,4 C 1,2 C 87 % 982 hPa 0,0 l/m 10,8 km/h (2 Bft)
22.03.2008 02:22 20,4 C 1,2 C 87 % 982 hPa 0,0 l/m 14,6 km/h (3 Bft)
22.03.2008 02:25 20,4 C 1,2 C 87 % 982 hPa 0,0 l/m 15,6 km/h (3 Bft)
22.03.2008 02:28 20,4 C 1,2 C 87 % 982 hPa 0,0 l/m 11,8 km/h (2 Bft)
22.03.2008 02:31 20,3 C 1,2 C 86 % 982 hPa 0,0 l/m 12,0 km/h (2 Bft)
22.03.2008 02:34 20,3 C 1,3 C 86 % 982 hPa 0,0 l/m 13,5 km/h (3 Bft)
22.03.2008 02:37 20,3 C 1,3 C 86 % 982 hPa 0,0 l/m 12,6 km/h (3 Bft)
22.03.2008 02:40 20,3 C 1,3 C 86 % 982 hPa 0,0 l/m 14,3 km/h (3 Bft)
22.03.2008 02:43 20,3 C 1,3 C 86 % 982 hPa 0,0 l/m 12,3 km/h (3 Bft)
22.03.2008 02:46 20,3 C 1,3 C 86 % 982 hPa 0,0 l/m 13,0 km/h (3 Bft)
22.03.2008 02:49 20,3 C 1,3 C 86 % 982 hPa 0,0 l/m 13,3 km/h (3 Bft)
22.03.2008 02:52 20,3 C 1,2 C 86 % 982 hPa 0,0 l/m 12,9 km/h (3 Bft)
22.03.2008 02:55 20,3 C 1,2 C 85 % 982 hPa 0,0 l/m 13,6 km/h (3 Bft)
22.03.2008 02:58 20,3 C 1,2 C 85 % 982 hPa 0,0 l/m 13,6 km/h (3 Bft)
22.03.2008 03:01 20,3 C 1,2 C 84 % 982 hPa 0,0 l/m 10,6 km/h (2 Bft)
22.03.2008 03:04 20,3 C 1,2 C 84 % 982 hPa 0,0 l/m 13,8 km/h (3 Bft)
22.03.2008 03:08 20,3 C 1,2 C 84 % 982 hPa 0,0 l/m 15,8 km/h (3 Bft)
22.03.2008 03:11 20,2 C 1,1 C 85 % 982 hPa 0,0 l/m 13,0 km/h (3 Bft)
22.03.2008 03:14 20,2 C 1,1 C 85 % 982 hPa 0,0 l/m 13,0 km/h (3 Bft)
22.03.2008 03:17 20,2 C 1,1 C 85 % 982 hPa 0,0 l/m 14,7 km/h (3 Bft)
22.03.2008 03:20 20,2 C 1,0 C 85 % 982 hPa 0,0 l/m 12,1 km/h (2 Bft)
22.03.2008 03:23 20,2 C 1,0 C 85 % 982 hPa 0,0 l/m 13,5 km/h (3 Bft)
22.03.2008 03:26 20,2 C 1,0 C 85 % 982 hPa 0,0 l/m 12,8 km/h (3 Bft)
22.03.2008 03:29 20,2 C 1,0 C 85 % 982 hPa 0,0 l/m 13,0 km/h (3 Bft)
22.03.2008 03:32 20,2 C 1,0 C 85 % 982 hPa 0,0 l/m 14,7 km/h (3 Bft)
22.03.2008 03:35 20,2 C 1,0 C 85 % 982 hPa 0,0 l/m 13,3 km/h (3 Bft)
22.03.2008 03:38 20,2 C 1,0 C 85 % 982 hPa 0,0 l/m 11,7 km/h (2 Bft)
22.03.2008 03:41 20,2 C 1,0 C 84 % 982 hPa 0,0 l/m 16,5 km/h (3 Bft)
22.03.2008 03:44 20,2 C 0,9 C 83 % 982 hPa 0,0 l/m 14,5 km/h (3 Bft)
22.03.2008 03:47 20,2 C 1,0 C 84 % 982 hPa 0,0 l/m 11,7 km/h (2 Bft)
22.03.2008 03:50 20,2 C 1,0 C 83 % 982 hPa 0,0 l/m 11,8 km/h (2 Bft)
22.03.2008 03:53 20,2 C 1,0 C 83 % 982 hPa 0,0 l/m 11,3 km/h (2 Bft)
22.03.2008 03:56 20,2 C 1,0 C 83 % 982 hPa 0,0 l/m 11,5 km/h (2 Bft)
22.03.2008 03:59 20,2 C 1,0 C 83 % 982 hPa 0,0 l/m 6,5 km/h (2 Bft)
22.03.2008 04:02 20,2 C 0,9 C 83 % 982 hPa 0,0 l/m 14,3 km/h (3 Bft)
22.03.2008 04:05 20,2 C 0,9 C 83 % 982 hPa 0,0 l/m 11,8 km/h (2 Bft)
22.03.2008 04:08 20,2 C 0,9 C 83 % 982 hPa 0,0 l/m 11,8 km/h (2 Bft)
22.03.2008 04:11 20,2 C 1,0 C 83 % 982 hPa 0,0 l/m 11,8 km/h (2 Bft)
22.03.2008 04:14 20,2 C 1,1 C 82 % 982 hPa 0,0 l/m 20,6 km/h (4 Bft)
22.03.2008 04:17 20,2 C 1,1 C 82 % 982 hPa 0,0 l/m 18,2 km/h (3 Bft)
22.03.2008 04:20 20,2 C 1,1 C 82 % 982 hPa 0,0 l/m 22,5 km/h (4 Bft)
22.03.2008 04:23 20,2 C 1,1 C 82 % 982 hPa 0,0 l/m 14,8 km/h (3 Bft)
22.03.2008 04:26 20,2 C 1,1 C 82 % 982 hPa 0,0 l/m 21,5 km/h (4 Bft)
22.03.2008 04:29 20,2 C 1,1 C 82 % 982 hPa 0,0 l/m 18,8 km/h (3 Bft)
22.03.2008 04:32 20,2 C 1,1 C 82 % 982 hPa 0,0 l/m 22,1 km/h (4 Bft)
22.03.2008 04:35 20,2 C 1,2 C 82 % 982 hPa 0,0 l/m 15,6 km/h (3 Bft)
22.03.2008 04:38 20,1 C 1,2 C 82 % 982 hPa 0,0 l/m 17,3 km/h (3 Bft)
22.03.2008 04:41 20,1 C 1,2 C 82 % 982 hPa 0,0 l/m 17,3 km/h (3 Bft)
22.03.2008 04:44 20,1 C 1,2 C 82 % 982 hPa 0,0 l/m 19,1 km/h (3 Bft)
22.03.2008 04:47 20,1 C 1,2 C 82 % 982 hPa 0,0 l/m 17,6 km/h (3 Bft)
22.03.2008 04:50 20,2 C 1,2 C 82 % 982 hPa 0,0 l/m 16,3 km/h (3 Bft)
22.03.2008 04:53 20,2 C 1,2 C 82 % 982 hPa 0,0 l/m 17,5 km/h (3 Bft)
22.03.2008 04:56 20,1 C 1,2 C 82 % 982 hPa 0,0 l/m 18,3 km/h (3 Bft)
22.03.2008 04:59 20,1 C 1,2 C 81 % 982 hPa 0,0 l/m 17,5 km/h (3 Bft)
22.03.2008 05:02 20,2 C 1,2 C 80 % 982 hPa 0,0 l/m 22,7 km/h (4 Bft)
22.03.2008 05:05 20,2 C 1,2 C 80 % 982 hPa 0,0 l/m 25,3 km/h (4 Bft)
22.03.2008 05:08 20,2 C 1,2 C 80 % 982 hPa 0,0 l/m 30,5 km/h (5 Bft)
22.03.2008 05:11 20,2 C 1,3 C 79 % 982 hPa 0,0 l/m 32,2 km/h (5 Bft)
22.03.2008 05:14 20,1 C 1,4 C 80 % 982 hPa 0,0 l/m 26,8 km/h (4 Bft)
22.03.2008 05:17 20,1 C 1,4 C 79 % 982 hPa 0,0 l/m 29,0 km/h (5 Bft)
22.03.2008 05:20 20,1 C 1,5 C 79 % 982 hPa 0,0 l/m 25,8 km/h (4 Bft)
22.03.2008 05:23 20,1 C 1,5 C 79 % 982 hPa 0,0 l/m 25,7 km/h (4 Bft)
22.03.2008 05:26 20,1 C 1,5 C 79 % 982 hPa 0,0 l/m 22,2 km/h (4 Bft)
22.03.2008 05:29 20,1 C 1,5 C 79 % 982 hPa 0,0 l/m 24,9 km/h (4 Bft)
22.03.2008 05:32 20,1 C 1,5 C 78 % 982 hPa 0,0 l/m 22,8 km/h (4 Bft)
22.03.2008 05:35 20,1 C 1,5 C 79 % 982 hPa 0,0 l/m 25,5 km/h (4 Bft)
22.03.2008 05:38 20,1 C 1,5 C 79 % 982 hPa 0,0 l/m 24,5 km/h (4 Bft)
22.03.2008 05:41 20,1 C 1,5 C 79 % 982 hPa 0,0 l/m 18,0 km/h (3 Bft)
22.03.2008 05:44 20,1 C 1,5 C 78 % 982 hPa 0,0 l/m 22,7 km/h (4 Bft)
22.03.2008 05:47 20,1 C 1,5 C 79 % 982 hPa 0,0 l/m 24,8 km/h (4 Bft)
22.03.2008 05:50 20,1 C 1,5 C 80 % 982 hPa 0,0 l/m 25,2 km/h (4 Bft)
22.03.2008 05:53 20,1 C 1,5 C 79 % 982 hPa 0,0 l/m 24,6 km/h (4 Bft)
22.03.2008 05:56 20,1 C 1,5 C 80 % 982 hPa 0,0 l/m 21,4 km/h (4 Bft)
22.03.2008 05:59 20,2 C 1,6 C 80 % 982 hPa 0,0 l/m 17,6 km/h (3 Bft)
22.03.2008 06:02 20,2 C 1,6 C 80 % 982 hPa 0,0 l/m 21,3 km/h (4 Bft)
22.03.2008 06:05 20,2 C 1,5 C 79 % 982 hPa 0,0 l/m 20,8 km/h (4 Bft)
22.03.2008 06:08 20,3 C 1,5 C 80 % 982 hPa 0,0 l/m 20,8 km/h (4 Bft)
22.03.2008 06:11 20,3 C 1,5 C 78 % 982 hPa 0,0 l/m 20,8 km/h (4 Bft)
22.03.2008 06:14 20,3 C 1,5 C 79 % 982 hPa 0,0 l/m 26,5 km/h (4 Bft)
22.03.2008 06:17 20,3 C 1,5 C 78 % 982 hPa 0,0 l/m 24,0 km/h (4 Bft)
22.03.2008 06:20 20,3 C 1,6 C 77 % 982 hPa 0,0 l/m 28,8 km/h (4 Bft)
22.03.2008 06:23 20,3 C 1,7 C 75 % 982 hPa 0,0 l/m 28,1 km/h (4 Bft)
22.03.2008 06:26 20,4 C 1,7 C 76 % 982 hPa 0,0 l/m 24,6 km/h (4 Bft)
22.03.2008 06:29 20,4 C 1,8 C 76 % 982 hPa 0,0 l/m 26,3 km/h (4 Bft)
22.03.2008 06:32 20,4 C 1,7 C 75 % 982 hPa 0,0 l/m 36,0 km/h (5 Bft)
22.03.2008 06:35 20,4 C 1,8 C 74 % 982 hPa 0,0 l/m 29,9 km/h (5 Bft)
22.03.2008 06:38 20,4 C 1,8 C 75 % 982 hPa 0,0 l/m 34,6 km/h (5 Bft)
22.03.2008 06:41 20,4 C 1,9 C 73 % 982 hPa 0,0 l/m 36,8 km/h (5 Bft)
22.03.2008 06:44 20,4 C 1,9 C 74 % 982 hPa 0,0 l/m 26,8 km/h (4 Bft)
22.03.2008 06:47 20,5 C 1,9 C 75 % 982 hPa 0,0 l/m 33,7 km/h (5 Bft)
22.03.2008 06:50 20,4 C 2,0 C 75 % 982 hPa 0,0 l/m 33,0 km/h (5 Bft)
22.03.2008 06:53 20,4 C 1,9 C 74 % 982 hPa 0,0 l/m 32,5 km/h (5 Bft)
22.03.2008 06:56 20,4 C 2,0 C 76 % 982 hPa 0,0 l/m 32,8 km/h (5 Bft)
22.03.2008 06:59 20,4 C 2,0 C 75 % 982 hPa 0,0 l/m 24,1 km/h (4 Bft)
22.03.2008 07:02 20,5 C 2,0 C 75 % 982 hPa 0,0 l/m 30,3 km/h (5 Bft)
22.03.2008 07:05 20,5 C 2,0 C 75 % 982 hPa 0,0 l/m 25,5 km/h (4 Bft)
22.03.2008 07:08 20,5 C 2,0 C 74 % 982 hPa 0,0 l/m 27,3 km/h (4 Bft)
22.03.2008 07:11 20,5 C 2,0 C 75 % 982 hPa 0,0 l/m 25,6 km/h (4 Bft)
22.03.2008 07:14 20,5 C 2,0 C 74 % 982 hPa 0,0 l/m 36,8 km/h (5 Bft)
22.03.2008 07:17 20,5 C 2,1 C 72 % 982 hPa 0,0 l/m 30,6 km/h (5 Bft)
22.03.2008 07:20 20,5 C 2,1 C 73 % 982 hPa 0,0 l/m 28,5 km/h (4 Bft)
22.03.2008 07:23 20,5 C 2,1 C 74 % 982 hPa 0,0 l/m 28,8 km/h (4 Bft)
22.03.2008 07:26 20,5 C 2,1 C 74 % 982 hPa 0,0 l/m 28,8 km/h (4 Bft)
22.03.2008 07:29 20,6 C 2,2 C 72 % 982 hPa 0,0 l/m 26,5 km/h (4 Bft)
22.03.2008 07:32 20,7 C 2,2 C 73 % 982 hPa 0,0 l/m 27,1 km/h (4 Bft)
22.03.2008 07:35 20,8 C 2,3 C 73 % 982 hPa 0,0 l/m 37,9 km/h (5 Bft)
22.03.2008 07:38 20,8 C 2,3 C 73 % 982 hPa 0,0 l/m 27,1 km/h (4 Bft)
22.03.2008 07:41 20,8 C 2,3 C 73 % 982 hPa 0,0 l/m 28,9 km/h (5 Bft)
22.03.2008 07:44 20,9 C 2,3 C 73 % 982 hPa 0,0 l/m 37,2 km/h (5 Bft)
22.03.2008 07:47 20,9 C 2,3 C 73 % 982 hPa 0,0 l/m 32,5 km/h (5 Bft)
22.03.2008 07:50 21,0 C 2,4 C 73 % 982 hPa 0,0 l/m 26,0 km/h (4 Bft)
22.03.2008 07:53 21,0 C 2,3 C 71 % 982 hPa 0,0 l/m 29,5 km/h (5 Bft)
22.03.2008 07:56 21,0 C 2,3 C 72 % 982 hPa 0,0 l/m 29,5 km/h (5 Bft)
22.03.2008 07:59 21,1 C 2,3 C 72 % 982 hPa 0,0 l/m 30,0 km/h (5 Bft)
22.03.2008 08:02 21,1 C 2,3 C 72 % 982 hPa 0,0 l/m 32,0 km/h (5 Bft)
22.03.2008 08:05 21,1 C 2,3 C 72 % 982 hPa 0,0 l/m 26,6 km/h (4 Bft)
22.03.2008 08:08 21,0 C 2,3 C 72 % 982 hPa 0,0 l/m 29,8 km/h (5 Bft)
22.03.2008 08:11 21,0 C 2,3 C 71 % 982 hPa 0,0 l/m 29,8 km/h (5 Bft)
22.03.2008 08:14 21,0 C 2,3 C 72 % 982 hPa 0,0 l/m 32,8 km/h (5 Bft)
22.03.2008 08:17 21,0 C 2,4 C 73 % 982 hPa 0,0 l/m 32,8 km/h (5 Bft)
22.03.2008 08:20 21,0 C 2,4 C 73 % 982 hPa 0,0 l/m 28,9 km/h (5 Bft)
22.03.2008 08:23 21,0 C 2,4 C 73 % 982 hPa 0,0 l/m 25,1 km/h (4 Bft)
22.03.2008 08:25 20,9 C 2,4 C 72 % 982 hPa 0,0 l/m 23,5 km/h (4 Bft)
22.03.2008 08:28 20,9 C 2,4 C 73 % 982 hPa 0,0 l/m 20,6 km/h (4 Bft)
22.03.2008 08:31 20,9 C 2,5 C 73 % 983 hPa 0,0 l/m 26,6 km/h (4 Bft)
22.03.2008 08:34 20,9 C 2,5 C 73 % 983 hPa 0,0 l/m 23,3 km/h (4 Bft)
22.03.2008 08:37 20,9 C 2,6 C 73 % 983 hPa 0,0 l/m 22,1 km/h (4 Bft)
22.03.2008 08:40 20,9 C 2,7 C 73 % 983 hPa 0,0 l/m 22,1 km/h (4 Bft)
22.03.2008 08:43 20,9 C 2,9 C 72 % 983 hPa 0,0 l/m 22,1 km/h (4 Bft)
22.03.2008 08:46 20,9 C 2,9 C 73 % 983 hPa 0,0 l/m 19,0 km/h (3 Bft)
22.03.2008 08:49 20,9 C 3,0 C 71 % 983 hPa 0,0 l/m 28,3 km/h (4 Bft)
22.03.2008 08:52 20,9 C 3,1 C 71 % 983 hPa 0,0 l/m 22,5 km/h (4 Bft)
22.03.2008 08:55 20,9 C 3,1 C 71 % 983 hPa 0,0 l/m 26,3 km/h (4 Bft)
22.03.2008 08:58 20,9 C 3,1 C 71 % 983 hPa 0,0 l/m 21,6 km/h (4 Bft)
22.03.2008 09:01 20,9 C 3,1 C 71 % 983 hPa 0,0 l/m 22,3 km/h (4 Bft)
22.03.2008 09:04 20,9 C 3,1 C 71 % 983 hPa 0,0 l/m 28,5 km/h (4 Bft)
22.03.2008 09:07 20,9 C 3,1 C 70 % 983 hPa 0,0 l/m 25,3 km/h (4 Bft)
22.03.2008 09:10 20,9 C 3,0 C 70 % 983 hPa 0,0 l/m 27,2 km/h (4 Bft)
22.03.2008 09:13 20,9 C 3,1 C 71 % 983 hPa 0,0 l/m 22,3 km/h (4 Bft)
22.03.2008 09:16 20,9 C 3,1 C 72 % 983 hPa 0,0 l/m 20,8 km/h (4 Bft)
22.03.2008 09:19 20,9 C 3,1 C 71 % 983 hPa 0,0 l/m 22,1 km/h (4 Bft)
22.03.2008 09:22 20,9 C 3,1 C 71 % 983 hPa 0,0 l/m 22,7 km/h (4 Bft)
22.03.2008 09:25 20,9 C 3,0 C 71 % 983 hPa 0,0 l/m 22,7 km/h (4 Bft)
22.03.2008 09:28 20,9 C 3,1 C 72 % 983 hPa 0,0 l/m 26,1 km/h (4 Bft)
22.03.2008 09:31 20,8 C 3,1 C 72 % 983 hPa 0,0 l/m 33,4 km/h (5 Bft)
22.03.2008 09:34 20,8 C 3,1 C 70 % 983 hPa 0,0 l/m 34,4 km/h (5 Bft)
22.03.2008 09:37 20,8 C 3,2 C 70 % 983 hPa 0,3 l/m 23,0 km/h (4 Bft)
22.03.2008 09:40 20,8 C 3,1 C 71 % 983 hPa 0,0 l/m 26,5 km/h (4 Bft)
22.03.2008 09:43 20,8 C 3,1 C 70 % 983 hPa 0,0 l/m 29,7 km/h (5 Bft)
22.03.2008 09:46 20,3 C 3,0 C 72 % 983 hPa 0,0 l/m 20,6 km/h (4 Bft)
22.03.2008 09:49 19,5 C 3,1 C 74 % 983 hPa 0,0 l/m 31,3 km/h (5 Bft)
22.03.2008 09:52 18,6 C 3,3 C 73 % 983 hPa 0,0 l/m 27,1 km/h (4 Bft)
22.03.2008 09:55 17,4 C 3,4 C 69 % 983 hPa 0,0 l/m 22,0 km/h (4 Bft)
22.03.2008 09:58 17,0 C 3,3 C 70 % 983 hPa 0,0 l/m 27,0 km/h (4 Bft)
22.03.2008 10:01 16,6 C 3,3 C 71 % 983 hPa 0,0 l/m 25,3 km/h (4 Bft)
22.03.2008 10:04 16,5 C 3,5 C 73 % 983 hPa 0,0 l/m 19,8 km/h (3 Bft)
22.03.2008 10:07 16,7 C 3,8 C 70 % 983 hPa 0,0 l/m 26,6 km/h (4 Bft)
22.03.2008 10:10 17,1 C 3,7 C 70 % 983 hPa 0,0 l/m 27,1 km/h (4 Bft)
22.03.2008 10:13 17,6 C 3,9 C 68 % 983 hPa 0,0 l/m 30,6 km/h (5 Bft)
22.03.2008 10:16 18,1 C 3,7 C 68 % 984 hPa 0,0 l/m 24,3 km/h (4 Bft)
22.03.2008 10:19 18,4 C 3,6 C 70 % 984 hPa 0,0 l/m 22,1 km/h (4 Bft)
22.03.2008 10:22 19,0 C 3,6 C 69 % 984 hPa 0,0 l/m 22,1 km/h (4 Bft)
22.03.2008 10:25 19,2 C 3,5 C 69 % 984 hPa 0,0 l/m 25,5 km/h (4 Bft)
22.03.2008 10:29 19,4 C 3,5 C 68 % 983 hPa 0,3 l/m 19,5 km/h (3 Bft)
22.03.2008 10:32 19,6 C 3,6 C 68 % 984 hPa 0,0 l/m 16,0 km/h (3 Bft)
22.03.2008 10:35 19,6 C 3,7 C 68 % 984 hPa 0,0 l/m 20,5 km/h (4 Bft)
22.03.2008 10:38 19,7 C 3,7 C 68 % 984 hPa 0,0 l/m 17,8 km/h (3 Bft)
22.03.2008 10:41 19,8 C 3,7 C 68 % 984 hPa 0,0 l/m 27,8 km/h (4 Bft)
22.03.2008 10:44 19,8 C 3,7 C 68 % 984 hPa 0,0 l/m 22,0 km/h (4 Bft)
22.03.2008 10:47 19,9 C 3,7 C 69 % 984 hPa 0,0 l/m 24,6 km/h (4 Bft)
22.03.2008 10:50 20,0 C 3,6 C 66 % 984 hPa 0,0 l/m 26,3 km/h (4 Bft)
22.03.2008 10:53 20,1 C 3,7 C 67 % 984 hPa 0,0 l/m 25,8 km/h (4 Bft)
22.03.2008 10:56 20,1 C 3,7 C 67 % 984 hPa 0,0 l/m 28,5 km/h (4 Bft)
22.03.2008 10:59 20,2 C 3,5 C 67 % 984 hPa 0,0 l/m 29,0 km/h (5 Bft)
22.03.2008 11:02 20,2 C 3,7 C 68 % 984 hPa 0,0 l/m 22,7 km/h (4 Bft)
22.03.2008 11:05 20,2 C 3,7 C 68 % 984 hPa 0,0 l/m 25,7 km/h (4 Bft)
22.03.2008 11:08 20,3 C 3,9 C 67 % 984 hPa 0,0 l/m 24,2 km/h (4 Bft)
22.03.2008 11:11 20,4 C 4,1 C 68 % 984 hPa 0,0 l/m 20,5 km/h (4 Bft)
22.03.2008 11:14 20,6 C 4,3 C 66 % 984 hPa 0,0 l/m 18,6 km/h (3 Bft)
22.03.2008 11:17 20,7 C 4,3 C 65 % 984 hPa 0,0 l/m 31,1 km/h (5 Bft)
22.03.2008 11:20 20,8 C 4,3 C 65 % 984 hPa 0,0 l/m 32,4 km/h (5 Bft)
22.03.2008 11:23 20,8 C 4,0 C 67 % 984 hPa 0,0 l/m 33,5 km/h (5 Bft)
22.03.2008 11:26 20,8 C 4,0 C 65 % 984 hPa 0,0 l/m 33,0 km/h (5 Bft)
22.03.2008 11:29 20,9 C 4,1 C 65 % 984 hPa 0,0 l/m 33,4 km/h (5 Bft)
22.03.2008 11:32 20,8 C 4,2 C 66 % 984 hPa 0,0 l/m 36,2 km/h (5 Bft)
22.03.2008 11:35 20,8 C 4,2 C 66 % 984 hPa 0,0 l/m 27,6 km/h (4 Bft)
22.03.2008 11:38 20,8 C 4,3 C 65 % 984 hPa 0,0 l/m 34,1 km/h (5 Bft)
22.03.2008 11:41 20,8 C 4,3 C 65 % 984 hPa 0,0 l/m 34,1 km/h (5 Bft)
22.03.2008 11:44 20,8 C 4,3 C 66 % 984 hPa 0,0 l/m 30,1 km/h (5 Bft)
22.03.2008 11:47 20,7 C 4,3 C 65 % 984 hPa 0,0 l/m 29,0 km/h (5 Bft)
22.03.2008 11:50 20,7 C 4,3 C 66 % 984 hPa 0,0 l/m 25,1 km/h (4 Bft)
22.03.2008 11:53 20,7 C 4,3 C 66 % 984 hPa 0,0 l/m 19,3 km/h (3 Bft)
22.03.2008 11:56 20,7 C 4,4 C 66 % 984 hPa 0,0 l/m 29,3 km/h (5 Bft)
22.03.2008 11:59 20,7 C 4,4 C 68 % 984 hPa 0,0 l/m 19,3 km/h (3 Bft)
22.03.2008 12:02 20,7 C 4,4 C 66 % 984 hPa 0,0 l/m 19,3 km/h (3 Bft)
22.03.2008 12:05 20,7 C 4,5 C 67 % 984 hPa 0,0 l/m 25,0 km/h (4 Bft)
22.03.2008 12:08 20,7 C 4,4 C 66 % 984 hPa 0,0 l/m 23,5 km/h (4 Bft)
22.03.2008 12:11 20,7 C 4,4 C 67 % 984 hPa 0,0 l/m 23,5 km/h (4 Bft)
22.03.2008 12:14 20,7 C 4,4 C 65 % 984 hPa 0,0 l/m 19,0 km/h (3 Bft)
22.03.2008 12:17 20,6 C 4,5 C 67 % 984 hPa 0,0 l/m 20,1 km/h (4 Bft)
22.03.2008 12:20 20,7 C 4,5 C 66 % 984 hPa 0,0 l/m 26,0 km/h (4 Bft)
22.03.2008 12:23 20,7 C 4,6 C 67 % 984 hPa 0,0 l/m 14,0 km/h (3 Bft)
22.03.2008 12:26 20,7 C 4,6 C 67 % 984 hPa 0,0 l/m 18,1 km/h (3 Bft)
22.03.2008 12:29 20,7 C 4,6 C 68 % 984 hPa 0,0 l/m 18,5 km/h (3 Bft)
22.03.2008 12:32 20,8 C 4,6 C 65 % 984 hPa 0,0 l/m 18,5 km/h (3 Bft)
22.03.2008 12:35 20,8 C 4,7 C 67 % 984 hPa 0,0 l/m 19,2 km/h (3 Bft)
22.03.2008 12:38 20,8 C 4,7 C 67 % 984 hPa 0,0 l/m 19,2 km/h (3 Bft)
22.03.2008 12:41 20,8 C 4,8 C 66 % 984 hPa 0,0 l/m 18,1 km/h (3 Bft)
22.03.2008 12:44 20,8 C 4,9 C 65 % 984 hPa 0,0 l/m 24,7 km/h (4 Bft)
22.03.2008 12:47 20,8 C 5,1 C 65 % 984 hPa 0,0 l/m 23,0 km/h (4 Bft)
22.03.2008 12:50 20,8 C 5,1 C 66 % 984 hPa 0,0 l/m 28,6 km/h (4 Bft)
22.03.2008 12:53 20,8 C 5,1 C 67 % 984 hPa 0,0 l/m 21,6 km/h (4 Bft)
22.03.2008 12:56 20,8 C 5,1 C 65 % 984 hPa 0,0 l/m 24,4 km/h (4 Bft)
22.03.2008 12:59 20,8 C 5,1 C 65 % 984 hPa 0,0 l/m 29,8 km/h (5 Bft)
22.03.2008 13:02 20,8 C 5,1 C 65 % 984 hPa 0,0 l/m 23,6 km/h (4 Bft)
22.03.2008 13:05 20,8 C 4,9 C 65 % 984 hPa 0,0 l/m 22,1 km/h (4 Bft)
22.03.2008 13:08 20,8 C 4,8 C 65 % 984 hPa 0,0 l/m 25,8 km/h (4 Bft)
22.03.2008 13:11 20,8 C 4,9 C 66 % 984 hPa 0,0 l/m 27,6 km/h (4 Bft)
22.03.2008 13:14 20,7 C 4,9 C 66 % 984 hPa 0,0 l/m 25,3 km/h (4 Bft)
22.03.2008 13:17 20,7 C 4,8 C 66 % 984 hPa 0,0 l/m 22,1 km/h (4 Bft)
22.03.2008 13:20 20,8 C 4,7 C 67 % 984 hPa 0,0 l/m 18,3 km/h (3 Bft)
22.03.2008 13:23 20,7 C 4,7 C 66 % 984 hPa 0,0 l/m 17,1 km/h (3 Bft)
22.03.2008 13:26 20,8 C 4,7 C 67 % 984 hPa 0,0 l/m 15,5 km/h (3 Bft)
22.03.2008 13:29 20,7 C 4,7 C 65 % 984 hPa 0,0 l/m 15,8 km/h (3 Bft)
22.03.2008 13:32 20,7 C 4,8 C 66 % 984 hPa 0,0 l/m 14,1 km/h (3 Bft)
22.03.2008 13:35 20,7 C 4,8 C 66 % 984 hPa 0,0 l/m 18,1 km/h (3 Bft)
22.03.2008 13:38 20,7 C 4,8 C 67 % 984 hPa 0,0 l/m 11,1 km/h (2 Bft)
22.03.2008 13:41 20,7 C 4,9 C 66 % 984 hPa 0,0 l/m 13,1 km/h (3 Bft)
22.03.2008 13:44 20,7 C 5,1 C 68 % 984 hPa 0,0 l/m 11,3 km/h (2 Bft)
22.03.2008 13:47 20,7 C 5,2 C 64 % 984 hPa 0,0 l/m 13,7 km/h (3 Bft)
22.03.2008 13:50 20,7 C 5,2 C 66 % 984 hPa 0,0 l/m 15,6 km/h (3 Bft)
22.03.2008 13:53 20,7 C 5,4 C 64 % 984 hPa 0,0 l/m 17,6 km/h (3 Bft)
22.03.2008 13:56 20,8 C 5,5 C 65 % 984 hPa 0,0 l/m 12,8 km/h (3 Bft)
22.03.2008 13:59 20,9 C 5,4 C 62 % 984 hPa 0,0 l/m 17,8 km/h (3 Bft)
22.03.2008 14:02 20,9 C 5,6 C 65 % 984 hPa 0,0 l/m 17,6 km/h (3 Bft)
22.03.2008 14:05 20,9 C 5,6 C 64 % 984 hPa 0,0 l/m 15,8 km/h (3 Bft)
22.03.2008 14:08 20,9 C 5,7 C 65 % 984 hPa 0,0 l/m 13,0 km/h (3 Bft)
22.03.2008 14:11 20,9 C 6,0 C 62 % 984 hPa 0,0 l/m 12,3 km/h (3 Bft)
22.03.2008 14:14 20,9 C 6,3 C 64 % 984 hPa 0,0 l/m 11,3 km/h (2 Bft)
22.03.2008 14:17 20,9 C 6,5 C 60 % 984 hPa 0,0 l/m 12,7 km/h (3 Bft)
22.03.2008 14:20 20,8 C 6,6 C 61 % 984 hPa 0,0 l/m 11,2 km/h (2 Bft)
22.03.2008 14:23 20,8 C 6,5 C 60 % 984 hPa 0,0 l/m 12,5 km/h (3 Bft)
22.03.2008 14:26 20,9 C 6,7 C 60 % 984 hPa 0,0 l/m 12,0 km/h (2 Bft)
22.03.2008 14:29 20,8 C 6,7 C 60 % 984 hPa 0,0 l/m 12,2 km/h (2 Bft)
22.03.2008 14:32 20,8 C 7,0 C 62 % 984 hPa 0,0 l/m 17,0 km/h (3 Bft)
22.03.2008 14:35 20,8 C 7,0 C 62 % 984 hPa 0,0 l/m 17,3 km/h (3 Bft)
22.03.2008 14:38 20,8 C 6,8 C 64 % 984 hPa 0,0 l/m 13,8 km/h (3 Bft)
22.03.2008 14:41 20,8 C 6,6 C 66 % 984 hPa 0,0 l/m 0,5 km/h (0 Bft)
22.03.2008 14:44 20,8 C 6,4 C 67 % 984 hPa 0,0 l/m 7,4 km/h (2 Bft)
22.03.2008 14:47 20,8 C 6,0 C 68 % 984 hPa 0,0 l/m 2,2 km/h (1 Bft)
22.03.2008 14:50 20,8 C 5,8 C 68 % 984 hPa 0,0 l/m 14,1 km/h (3 Bft)
22.03.2008 14:53 20,9 C 5,7 C 70 % 984 hPa 0,0 l/m 14,1 km/h (3 Bft)
22.03.2008 14:56 21,0 C 5,6 C 70 % 984 hPa 0,0 l/m 1,8 km/h (1 Bft)
22.03.2008 14:59 21,0 C 5,5 C 71 % 984 hPa 0,0 l/m 11,5 km/h (2 Bft)
22.03.2008 15:02 21,0 C 5,3 C 71 % 984 hPa 0,0 l/m 22,0 km/h (4 Bft)
22.03.2008 15:05 21,0 C 5,4 C 72 % 984 hPa 0,0 l/m 3,4 km/h (1 Bft)
22.03.2008 15:08 21,0 C 5,4 C 72 % 984 hPa 0,0 l/m 0,4 km/h (0 Bft)
22.03.2008 15:11 21,0 C 5,4 C 72 % 984 hPa 0,0 l/m 0,0 km/h (0 Bft)
22.03.2008 15:14 21,0 C 5,3 C 71 % 984 hPa 0,0 l/m 4,0 km/h (1 Bft)
22.03.2008 15:17 21,0 C 5,2 C 73 % 984 hPa 0,0 l/m 0,8 km/h (0 Bft)
22.03.2008 15:20 21,0 C 5,2 C 73 % 984 hPa 0,0 l/m 0,0 km/h (0 Bft)
22.03.2008 15:23 21,0 C 5,2 C 73 % 984 hPa 0,0 l/m 0,6 km/h (0 Bft)
22.03.2008 15:26 21,0 C 5,2 C 73 % 984 hPa 0,0 l/m 0,1 km/h (0 Bft)
22.03.2008 15:29 20,5 C 5,3 C 73 % 984 hPa 0,0 l/m 0,0 km/h (0 Bft)
22.03.2008 15:32 20,5 C 5,4 C 74 % 984 hPa 0,0 l/m 0,6 km/h (0 Bft)
22.03.2008 15:35 20,5 C 5,6 C 73 % 984 hPa 0,0 l/m 0,5 km/h (0 Bft)
22.03.2008 15:38 19,2 C 5,6 C 73 % 984 hPa 0,0 l/m 0,5 km/h (0 Bft)
22.03.2008 15:41 19,3 C 5,7 C 72 % 984 hPa 0,0 l/m 0,0 km/h (0 Bft)
22.03.2008 15:44 19,6 C 5,9 C 72 % 984 hPa 0,0 l/m 0,0 km/h (0 Bft)
22.03.2008 15:47 19,6 C 6,0 C 72 % 984 hPa 0,0 l/m 0,0 km/h (0 Bft)
22.03.2008 15:50 19,9 C 6,4 C 71 % 984 hPa 0,0 l/m 0,0 km/h (0 Bft)
22.03.2008 15:53 19,9 C 6,7 C 68 % 984 hPa 0,0 l/m 0,4 km/h (0 Bft)
22.03.2008 15:56 20,1 C 6,8 C 67 % 984 hPa 0,0 l/m 9,6 km/h (2 Bft)
22.03.2008 15:59 20,2 C 6,9 C 66 % 984 hPa 0,0 l/m 6,5 km/h (2 Bft)
22.03.2008 16:02 20,3 C 6,8 C 66 % 984 hPa 0,0 l/m 0,0 km/h (0 Bft)
22.03.2008 16:05 20,3 C 7,0 C 75 % 984 hPa 0,0 l/m 0,3 km/h (0 Bft)
22.03.2008 16:08 20,4 C 7,4 C 69 % 984 hPa 0,0 l/m 0,0 km/h (0 Bft)
22.03.2008 16:27 20,4 C 7,4 C 69 % 984 hPa 0,0 l/m 0,0 km/h (0 Bft)
22.03.2008 16:30 20,4 C 7,5 C 63 % 984 hPa 0,0 l/m 7,5 km/h (2 Bft)
22.03.2008 16:33 20,4 C 7,7 C 62 % 984 hPa 0,0 l/m 0,0 km/h (0 Bft)
22.03.2008 16:36 20,5 C 7,9 C 63 % 984 hPa 0,0 l/m 0,0 km/h (0 Bft)
22.03.2008 16:39 20,6 C 7,9 C 64 % 984 hPa 0,0 l/m 0,0 km/h (0 Bft)
22.03.2008 16:42 20,5 C 8,0 C 64 % 984 hPa 0,0 l/m 0,0 km/h (0 Bft)
22.03.2008 16:45 20,6 C 8,3 C 63 % 984 hPa 0,0 l/m 0,0 km/h (0 Bft)
22.03.2008 16:48 20,7 C 8,4 C 64 % 984 hPa 0,0 l/m 0,0 km/h (0 Bft)
22.03.2008 16:51 20,7 C 8,5 C 62 % 984 hPa 0,0 l/m 0,7 km/h (0 Bft)
22.03.2008 16:54 20,8 C 9,1 C 63 % 984 hPa 0,0 l/m 0,7 km/h (0 Bft)
22.03.2008 16:57 20,8 C 9,6 C 61 % 984 hPa 0,0 l/m 3,4 km/h (1 Bft)
22.03.2008 17:00 20,8 C 10,3 C 56 % 984 hPa 0,0 l/m 0,3 km/h (0 Bft)
22.03.2008 17:03 20,8 C 10,4 C 56 % 984 hPa 0,0 l/m 0,0 km/h (0 Bft)
22.03.2008 17:06 20,8 C 10,4 C 56 % 984 hPa 0,0 l/m 0,0 km/h (0 Bft)
22.03.2008 17:09 20,9 C 10,8 C 58 % 984 hPa 0,0 l/m 0,0 km/h (0 Bft)
22.03.2008 17:12 20,9 C 10,9 C 56 % 984 hPa 0,0 l/m 0,0 km/h (0 Bft)
22.03.2008 17:15 20,8 C 10,3 C 58 % 984 hPa 0,0 l/m 0,0 km/h (0 Bft)
22.03.2008 17:18 20,9 C 10,0 C 56 % 984 hPa 0,0 l/m 9,8 km/h (2 Bft)
22.03.2008 17:21 20,9 C 9,6 C 58 % 985 hPa 0,0 l/m 13,7 km/h (3 Bft)
22.03.2008 17:24 20,9 C 9,0 C 59 % 985 hPa 0,0 l/m 7,2 km/h (2 Bft)
22.03.2008 17:27 20,8 C 8,9 C 60 % 985 hPa 0,0 l/m 0,0 km/h (0 Bft)
22.03.2008 17:30 20,9 C 8,9 C 61 % 985 hPa 0,0 l/m 0,0 km/h (0 Bft)
22.03.2008 17:33 20,9 C 8,6 C 62 % 985 hPa 0,0 l/m 0,0 km/h (0 Bft)
22.03.2008 17:36 20,9 C 8,3 C 63 % 985 hPa 0,0 l/m 0,0 km/h (0 Bft)
22.03.2008 17:39 20,9 C 8,2 C 65 % 985 hPa 0,0 l/m 0,0 km/h (0 Bft)
22.03.2008 17:42 21,0 C 8,5 C 64 % 985 hPa 0,0 l/m 0,0 km/h (0 Bft)
22.03.2008 17:45 21,0 C 9,0 C 62 % 985 hPa 0,0 l/m 0,0 km/h (0 Bft)
22.03.2008 17:48 21,0 C 8,9 C 62 % 985 hPa 0,0 l/m 0,0 km/h (0 Bft)
22.03.2008 17:51 21,1 C 8,4 C 62 % 985 hPa 0,0 l/m 0,0 km/h (0 Bft)
22.03.2008 17:54 21,1 C 8,0 C 63 % 985 hPa 0,0 l/m 0,0 km/h (0 Bft)
22.03.2008 17:57 21,1 C 7,9 C 64 % 985 hPa 0,0 l/m 0,0 km/h (0 Bft)
22.03.2008 18:00 21,1 C 7,8 C 64 % 985 hPa 0,0 l/m 0,0 km/h (0 Bft)
22.03.2008 18:03 21,1 C 7,8 C 64 % 985 hPa 0,0 l/m 0,0 km/h (0 Bft)
22.03.2008 18:06 21,1 C 7,6 C 65 % 985 hPa 0,0 l/m 0,0 km/h (0 Bft)
22.03.2008 18:09 21,1 C 7,6 C 65 % 985 hPa 0,0 l/m 0,0 km/h (0 Bft)
22.03.2008 18:12 21,1 C 7,3 C 65 % 985 hPa 0,0 l/m 0,0 km/h (0 Bft)
22.03.2008 18:15 21,0 C 7,2 C 66 % 985 hPa 0,0 l/m 0,0 km/h (0 Bft)
22.03.2008 18:18 21,0 C 6,8 C 66 % 985 hPa 0,0 l/m 0,0 km/h (0 Bft)
22.03.2008 18:21 21,0 C 6,8 C 66 % 985 hPa 0,0 l/m 0,0 km/h (0 Bft)
22.03.2008 18:24 20,9 C 6,4 C 67 % 985 hPa 0,0 l/m 0,0 km/h (0 Bft)
22.03.2008 18:27 21,0 C 6,2 C 68 % 985 hPa 0,0 l/m 0,0 km/h (0 Bft)
22.03.2008 18:30 21,0 C 5,9 C 68 % 985 hPa 0,0 l/m 0,0 km/h (0 Bft)
22.03.2008 18:33 20,9 C 5,9 C 68 % 985 hPa 0,0 l/m 0,0 km/h (0 Bft)
22.03.2008 18:36 20,9 C 5,2 C 70 % 985 hPa 0,0 l/m 0,0 km/h (0 Bft)
22.03.2008 18:39 20,9 C 4,8 C 70 % 985 hPa 0,0 l/m 0,0 km/h (0 Bft)
22.03.2008 18:42 20,9 C 4,6 C 71 % 985 hPa 0,0 l/m 0,0 km/h (0 Bft)
22.03.2008 18:45 20,8 C 4,3 C 71 % 986 hPa 0,0 l/m 0,0 km/h (0 Bft)
22.03.2008 18:47 20,8 C 4,2 C 72 % 986 hPa 0,0 l/m 0,0 km/h (0 Bft)
22.03.2008 18:50 20,9 C 3,9 C 72 % 986 hPa 0,0 l/m 0,0 km/h (0 Bft)
22.03.2008 18:53 20,9 C 3,9 C 73 % 986 hPa 0,0 l/m 0,0 km/h (0 Bft)
22.03.2008 18:56 20,8 C 3,9 C 73 % 986 hPa 0,0 l/m 0,0 km/h (0 Bft)
22.03.2008 18:59 20,8 C 3,7 C 74 % 986 hPa 0,0 l/m 0,0 km/h (0 Bft)
22.03.2008 19:02 20,9 C 3,6 C 74 % 986 hPa 0,0 l/m 0,0 km/h (0 Bft)
22.03.2008 19:05 20,9 C 3,5 C 75 % 986 hPa 0,0 l/m 0,0 km/h (0 Bft)
22.03.2008 19:08 20,8 C 3,5 C 75 % 986 hPa 0,0 l/m 0,0 km/h (0 Bft)
22.03.2008 19:11 20,8 C 3,4 C 76 % 986 hPa 0,0 l/m 0,0 km/h (0 Bft)
22.03.2008 19:14 20,8 C 3,4 C 76 % 986 hPa 0,0 l/m 0,0 km/h (0 Bft)
22.03.2008 19:17 20,8 C 3,3 C 76 % 986 hPa 0,0 l/m 0,0 km/h (0 Bft)
22.03.2008 19:20 20,8 C 3,1 C 76 % 986 hPa 0,0 l/m 0,0 km/h (0 Bft)
22.03.2008 19:23 20,8 C 3,0 C 76 % 986 hPa 0,0 l/m 0,0 km/h (0 Bft)
22.03.2008 19:26 20,8 C 3,0 C 76 % 986 hPa 0,0 l/m 0,0 km/h (0 Bft)
22.03.2008 19:29 20,8 C 2,9 C 76 % 986 hPa 0,0 l/m 0,0 km/h (0 Bft)
22.03.2008 19:32 20,8 C 2,9 C 77 % 986 hPa 0,0 l/m 0,0 km/h (0 Bft)
22.03.2008 19:35 20,8 C 2,8 C 77 % 986 hPa 0,0 l/m 0,0 km/h (0 Bft)
22.03.2008 19:38 20,8 C 2,8 C 77 % 986 hPa 0,0 l/m 0,0 km/h (0 Bft)
22.03.2008 19:41 20,8 C 2,8 C 77 % 986 hPa 0,0 l/m 0,0 km/h (0 Bft)
22.03.2008 19:44 20,8 C 2,7 C 77 % 986 hPa 0,0 l/m 0,0 km/h (0 Bft)
22.03.2008 19:47 20,8 C 2,6 C 77 % 986 hPa 0,0 l/m 0,0 km/h (0 Bft)
22.03.2008 19:50 20,8 C 2,5 C 77 % 986 hPa 0,0 l/m 0,0 km/h (0 Bft)
22.03.2008 19:53 20,8 C 2,5 C 78 % 986 hPa 0,0 l/m 0,0 km/h (0 Bft)
22.03.2008 19:56 20,8 C 2,5 C 78 % 986 hPa 0,0 l/m 0,0 km/h (0 Bft)
22.03.2008 19:59 20,8 C 2,4 C 78 % 986 hPa 0,0 l/m 0,0 km/h (0 Bft)
22.03.2008 20:02 20,8 C 2,3 C 78 % 986 hPa 0,0 l/m 0,0 km/h (0 Bft)
22.03.2008 20:05 20,8 C 2,3 C 78 % 986 hPa 0,0 l/m 0,0 km/h (0 Bft)
22.03.2008 20:08 20,8 C 2,3 C 79 % 986 hPa 0,0 l/m 0,0 km/h (0 Bft)
22.03.2008 20:11 20,8 C 2,3 C 79 % 986 hPa 0,0 l/m 0,0 km/h (0 Bft)
22.03.2008 20:14 20,8 C 2,2 C 79 % 986 hPa 0,0 l/m 0,0 km/h (0 Bft)
22.03.2008 20:17 20,8 C 2,1 C 79 % 986 hPa 0,0 l/m 0,0 km/h (0 Bft)
22.03.2008 20:20 20,8 C 2,1 C 80 % 986 hPa 0,0 l/m 0,0 km/h (0 Bft)
22.03.2008 20:23 20,8 C 2,0 C 80 % 986 hPa 0,0 l/m 0,0 km/h (0 Bft)
22.03.2008 20:26 20,8 C 2,0 C 81 % 987 hPa 0,0 l/m 0,0 km/h (0 Bft)
22.03.2008 20:29 20,8 C 1,9 C 81 % 987 hPa 0,0 l/m 0,0 km/h (0 Bft)
22.03.2008 20:32 20,8 C 1,9 C 82 % 986 hPa 0,0 l/m 0,0 km/h (0 Bft)
22.03.2008 20:35 20,8 C 2,0 C 83 % 986 hPa 0,0 l/m 0,0 km/h (0 Bft)
22.03.2008 20:39 20,8 C 2,0 C 83 % 986 hPa 0,0 l/m 0,0 km/h (0 Bft)
22.03.2008 20:42 20,9 C 2,0 C 83 % 987 hPa 0,0 l/m 0,0 km/h (0 Bft)
22.03.2008 20:45 20,9 C 2,0 C 83 % 986 hPa 0,0 l/m 0,0 km/h (0 Bft)
22.03.2008 20:48 20,9 C 1,9 C 81 % 987 hPa 0,0 l/m 0,0 km/h (0 Bft)
22.03.2008 20:51 20,9 C 1,9 C 81 % 987 hPa 0,0 l/m 0,0 km/h (0 Bft)
22.03.2008 20:54 20,9 C 1,9 C 82 % 987 hPa 0,0 l/m 0,0 km/h (0 Bft)
22.03.2008 20:57 20,9 C 1,9 C 82 % 987 hPa 0,0 l/m 0,0 km/h (0 Bft)
22.03.2008 21:00 20,9 C 1,9 C 81 % 987 hPa 0,0 l/m 0,0 km/h (0 Bft)
22.03.2008 21:03 20,9 C 1,9 C 81 % 987 hPa 0,0 l/m 0,0 km/h (0 Bft)
22.03.2008 21:06 20,9 C 1,9 C 81 % 987 hPa 0,0 l/m 0,0 km/h (0 Bft)
22.03.2008 21:09 20,9 C 1,9 C 82 % 987 hPa 0,0 l/m 0,0 km/h (0 Bft)
22.03.2008 21:12 20,9 C 1,9 C 82 % 987 hPa 0,0 l/m 0,0 km/h (0 Bft)
22.03.2008 21:15 20,9 C 1,8 C 82 % 987 hPa 0,0 l/m 0,0 km/h (0 Bft)
22.03.2008 21:18 20,9 C 1,8 C 82 % 987 hPa 0,0 l/m 0,0 km/h (0 Bft)
22.03.2008 21:21 20,9 C 1,8 C 82 % 987 hPa 0,0 l/m 0,0 km/h (0 Bft)
22.03.2008 21:24 20,9 C 1,8 C 82 % 987 hPa 0,0 l/m 0,0 km/h (0 Bft)
22.03.2008 21:27 20,9 C 1,7 C 82 % 987 hPa 0,0 l/m 0,0 km/h (0 Bft)
22.03.2008 21:30 21,0 C 1,7 C 82 % 987 hPa 0,0 l/m 0,0 km/h (0 Bft)
22.03.2008 21:33 20,9 C 1,6 C 82 % 987 hPa 0,0 l/m 0,0 km/h (0 Bft)
22.03.2008 21:36 20,9 C 1,5 C 82 % 987 hPa 0,0 l/m 0,0 km/h (0 Bft)
22.03.2008 21:39 20,9 C 1,5 C 82 % 987 hPa 0,0 l/m 0,0 km/h (0 Bft)
22.03.2008 21:42 21,0 C 1,4 C 82 % 987 hPa 0,0 l/m 0,0 km/h (0 Bft)
22.03.2008 21:45 20,9 C 1,4 C 82 % 987 hPa 0,0 l/m 0,0 km/h (0 Bft)
22.03.2008 21:48 21,0 C 1,4 C 82 % 987 hPa 0,0 l/m 0,0 km/h (0 Bft)
22.03.2008 21:51 21,0 C 1,3 C 82 % 987 hPa 0,0 l/m 0,0 km/h (0 Bft)
22.03.2008 21:54 21,0 C 1,3 C 83 % 987 hPa 0,0 l/m 0,0 km/h (0 Bft)
22.03.2008 21:57 21,0 C 1,4 C 83 % 987 hPa 0,0 l/m 0,0 km/h (0 Bft)
22.03.2008 22:00 21,0 C 1,4 C 84 % 987 hPa 0,0 l/m 0,0 km/h (0 Bft)
22.03.2008 22:03 21,0 C 1,4 C 84 % 987 hPa 0,0 l/m 0,0 km/h (0 Bft)
22.03.2008 22:06 20,9 C 1,3 C 84 % 987 hPa 0,0 l/m 0,0 km/h (0 Bft)
22.03.2008 22:09 21,0 C 1,3 C 84 % 987 hPa 0,0 l/m 0,0 km/h (0 Bft)
22.03.2008 22:12 21,0 C 1,2 C 84 % 987 hPa 0,0 l/m 0,0 km/h (0 Bft)
22.03.2008 22:15 20,9 C 1,2 C 84 % 987 hPa 0,0 l/m 0,0 km/h (0 Bft)
22.03.2008 22:18 21,0 C 1,2 C 84 % 987 hPa 0,0 l/m 0,0 km/h (0 Bft)
22.03.2008 22:21 21,0 C 1,2 C 84 % 987 hPa 0,0 l/m 0,0 km/h (0 Bft)
22.03.2008 22:24 21,0 C 1,2 C 84 % 987 hPa 0,0 l/m 0,0 km/h (0 Bft)
22.03.2008 22:27 21,0 C 1,2 C 84 % 987 hPa 0,0 l/m 0,0 km/h (0 Bft)
22.03.2008 22:30 20,9 C 1,1 C 84 % 987 hPa 0,0 l/m 0,0 km/h (0 Bft)
22.03.2008 22:33 20,9 C 1,0 C 83 % 987 hPa 0,0 l/m 0,0 km/h (0 Bft)
22.03.2008 22:36 20,9 C 1,0 C 83 % 987 hPa 0,0 l/m 0,0 km/h (0 Bft)
22.03.2008 22:39 20,9 C 0,9 C 83 % 987 hPa 0,0 l/m 0,0 km/h (0 Bft)
22.03.2008 22:42 20,8 C 0,9 C 84 % 987 hPa 0,0 l/m 0,0 km/h (0 Bft)
22.03.2008 22:45 20,8 C 0,8 C 84 % 987 hPa 0,0 l/m 0,0 km/h (0 Bft)
22.03.2008 22:48 20,8 C 0,8 C 84 % 987 hPa 0,0 l/m 0,0 km/h (0 Bft)
22.03.2008 22:51 20,8 C 0,7 C 84 % 987 hPa 0,0 l/m 0,0 km/h (0 Bft)
22.03.2008 22:54 20,8 C 0,7 C 84 % 987 hPa 0,0 l/m 0,0 km/h (0 Bft)
22.03.2008 22:57 20,8 C 0,7 C 84 % 987 hPa 0,0 l/m 0,0 km/h (0 Bft)
22.03.2008 23:00 20,7 C 0,7 C 85 % 987 hPa 0,0 l/m 0,0 km/h (0 Bft)
22.03.2008 23:03 20,7 C 0,7 C 86 % 987 hPa 0,0 l/m 0,0 km/h (0 Bft)
22.03.2008 23:06 20,7 C 0,7 C 86 % 987 hPa 0,0 l/m 0,0 km/h (0 Bft)
22.03.2008 23:09 20,7 C 0,7 C 85 % 987 hPa 0,0 l/m 0,0 km/h (0 Bft)
22.03.2008 23:12 20,7 C 0,6 C 85 % 987 hPa 0,0 l/m 0,0 km/h (0 Bft)
22.03.2008 23:15 20,7 C 0,6 C 85 % 987 hPa 0,0 l/m 0,0 km/h (0 Bft)
22.03.2008 23:18 20,6 C 0,7 C 85 % 987 hPa 0,0 l/m 0,0 km/h (0 Bft)
22.03.2008 23:21 20,6 C 0,7 C 85 % 987 hPa 0,0 l/m 0,0 km/h (0 Bft)
22.03.2008 23:24 20,6 C 0,7 C 87 % 987 hPa 0,0 l/m 0,0 km/h (0 Bft)
22.03.2008 23:27 20,6 C 0,6 C 87 % 987 hPa 0,0 l/m 0,0 km/h (0 Bft)
22.03.2008 23:30 20,6 C 0,6 C 87 % 987 hPa 0,0 l/m 0,0 km/h (0 Bft)
22.03.2008 23:33 20,6 C 0,6 C 87 % 987 hPa 0,0 l/m 0,0 km/h (0 Bft)
22.03.2008 23:36 20,6 C 0,5 C 87 % 987 hPa 0,0 l/m 0,0 km/h (0 Bft)
22.03.2008 23:39 20,6 C 0,5 C 86 % 987 hPa 0,0 l/m 0,0 km/h (0 Bft)
22.03.2008 23:42 20,6 C 0,4 C 86 % 987 hPa 0,0 l/m 0,0 km/h (0 Bft)
22.03.2008 23:45 20,6 C 0,3 C 86 % 987 hPa 0,0 l/m 0,0 km/h (0 Bft)
22.03.2008 23:48 20,6 C 0,3 C 86 % 987 hPa 0,0 l/m 0,0 km/h (0 Bft)
22.03.2008 23:51 20,6 C 0,2 C 87 % 987 hPa 0,0 l/m 0,0 km/h (0 Bft)
22.03.2008 23:54 20,6 C 0,2 C 87 % 987 hPa 0,0 l/m 0,0 km/h (0 Bft)
22.03.2008 23:57 20,6 C 0,2 C 87 % 987 hPa 0,0 l/m 0,0 km/h (0 Bft)
_ Min-Zeit 10:04 23:51 17:00 00:02 - 01:07
Minimum _ 16,5 C 0,2 C 56 % 981 hPa - 0,0 km/h (0 Bft)
_ Max-Zeit 07:59 17:12 01:28 20:26 09:37 07:35
Maximum _ 21,1 C 10,9 C 87 % 987 hPa 0,3 l/m 37,9 km/h
SW (5 Bft)
Durchschnitt _ 20,5 C 3,2 C 75 % 984 hPa #0,7 l/m 12,4 km/h (3 Bft)